User: anonymous   Login
Location: Unspecified
(0.0000°N, 0.0000°E)
Time: 18:54:33
(UTC+00:00)
Language:

USA 238 DEB - Orbit

View from above orbital plane
View from above orbital plane
View from above satellite
View from above satellite

Ground track
Ground track

The orbit data is extracted from the following two-line orbital elements,

1 38773U 12048P   17229.86345331 0.00000000  00000-0  00000-0 0    00
2 38773  63.4356 144.1964 0030000   8.9555 351.0445 13.40733340    01
Epoch (UTC): 17 August 2017 20:43:22
Eccentricity: 0.0030000
inclination: 63.4356°
perigee height: 1084 km
apogee height: 1129 km
right ascension of ascending node: 144.1964°
argument of perigee: 8.9555°
revolutions per day: 13.40733340
mean anomaly at epoch: 351.0445°
orbit number at epoch: 0

The dashed part of the orbit path shows where the satellite is in the earth's shadow,  

DLR